KB9IQX-WX Weather Reports


time (UTC)temp
F
wind
direction
speed
knots
gust
knots
rain 1hr
in
rain 24hr
in
rain mn
in
humidity
%
barometer
mb
20260503235623 91 0.0 0.0 0.00 0.00 0.00 1 1009.3
20260503232622 90 0.0 0.0 0.00 0.00 0.00 1 1009.6
20260503225621 90 0.0 0.0 0.00 0.00 0.00 1 1010.0
20260503222621 94 0.0 0.0 0.00 0.00 0.00 1 1010.4
20260503215620 98 0.0 0.0 0.00 0.00 0.00 1 1010.7
20260503212621 97 0.0 0.0 0.00 0.00 0.00 1 1011.0
20260503205621 95 0.0 0.0 0.00 0.00 0.00 1 1011.3
20260503202621 95 0.0 0.0 0.00 0.00 0.00 1 1011.6
20260503195621 94 0.0 0.0 0.00 0.00 0.00 1 1011.9
20260503192622 94 0.0 0.0 0.00 0.00 0.00 1 1012.3
20260503185622 92 0.0 0.0 0.00 0.00 0.00 1 1012.8
20260503182624 89 0.0 0.0 0.00 0.00 0.00 1 1013.1
20260503175623 84 0.0 0.0 0.00 0.00 0.00 2 1013.2
20260503172623 80 0.0 0.0 0.00 0.00 0.00 2 1013.5
20260503072621 70 0.0 0.0 0.00 0.00 0.00 2 1013.8
20260503052621 71 0.0 0.0 0.00 0.00 0.00 2 1013.7
20260503045621 72 0.0 0.0 0.00 0.00 0.00 2 1013.7
20260503042621 73 0.0 0.0 0.00 0.00 0.00 2 1013.4
20260503035621 74 0.0 0.0 0.00 0.00 0.00 2 1013.1
20260503032620 76 0.0 0.0 0.00 0.00 0.00 2 1012.7
20260503025622 77 0.0 0.0 0.00 0.00 0.00 2 1012.4
20260503022621 78 0.0 0.0 0.00 0.00 0.00 2 1012.2
20260503015621 80 0.0 0.0 0.00 0.00 0.00 2 1012.2
20260503012630 82 0.0 0.0 0.00 0.00 0.00 2 1012.3
20260503005622 83 0.0 0.0 0.00 0.00 0.00 2 1012.4
20260503002620 86 0.0 0.0 0.00 0.00 0.00 2 1012.5